This demonstration page uses our WeatherBlox Daily Observations layout. Learn more.

Left ArrowRight Arrow

Hourly Observations for September 26, 2022

Temp ( °F °C ) Dew Point ( °F °C ) Humidity (%) Winds ( mph kmh ) Pressure ( in mb ) Visibility ( mi km ) Precip ( " mm )
12:53 am 00:53 Clear 65 18.3 63 17.2 93 93 Calm 29.91 1013 10 16 0.00 0.00
1:53 am 01:53 Clear 65 18.3 63 17.2 93 93 Calm 29.90 1013 10 16 0.00 0.00
2:53 am 02:53 Clear 65 18.3 62 16.7 90 90 Calm 29.89 1012 10 16 0.00 0.00
3:53 am 03:53 Mostly Clear 64 17.8 63 17.2 96 96 Calm 29.90 1012 9 14 0.00 0.00
4:49 am 04:49 Clear with Mist and Fog 61 16 61 16 100 100 Calm 29.91 1013 2 3 0.00 0.00
4:57 am 04:57 Clear with Mist and Fog 62 16.7 60 15.6 93 93 Calm 29.91 1013 3 5 0.00 0.00
5:18 am 05:18 Mostly Clear with Mist and Fog 61 16.1 60 15.6 97 97 Calm 29.91 1013 3 4 0.00 0.00
5:28 am 05:28 Mostly Clear with Mist and Fog 61 16.1 60 15.6 97 97 Calm 29.91 1013 1 2 0.00 0.00
5:36 am 05:36 Clear with Mist and Fog 61 16.1 60 15.6 97 97 Calm 29.90 1013 1 1 0.00 0.00
5:45 am 05:45 Clear with Mist and Fog 61 16.1 61 16.1 100 100 Calm 29.91 1013 5 8 0.00 0.00
5:53 am 05:53 Clear 60 15.6 59 15 96 96 Calm 29.89 1012 10 16 0.00 0.00
6:53 am 06:53 Clear 63 17.2 62 16.7 97 97 Calm 29.91 1013 10 16 0.00 0.00
7:21 am 07:21 Partly Cloudy 63 17.2 62 16.7 97 97 NNW 3 6 29.93 1013 7 11 0.00 0.00
7:45 am 07:45 Cloudy with Mist and Fog 63 17.2 62 16.7 97 97 Calm 29.94 1014 4 6 0.00 0.00
7:53 am 07:53 Cloudy with Mist and Fog 63 17.2 62 16.7 97 97 NW 5 7 29.93 1014 4 6 0.00 0.00
8:20 am 08:20 Partly Cloudy with Mist and Fog 64 17.8 63 17.2 96 96 N 3 6 29.94 1014 6 10 0.00 0.00
8:53 am 08:53 Sunny 66 18.9 65 18.3 96 96 NW 5 7 29.94 1014 10 16 0.00 0.00
9:53 am 09:53 Sunny 71 21.7 59 15 66 66 NNW 8 13 29.95 1014 10 16 0.00 0.00
10:53 am 10:53 Sunny 74 23.3 54 12.2 50 50 NW 10 17 29.96 1015 10 16 0.00 0.00
11:53 am 11:53 Sunny 76 24.4 51 10.6 42 42 WNW 14 22 29.96 1015 10 16 0.00 0.00
12:53 pm 12:53 Sunny 77 25 50 10 39 39 WNW 12 19 29.94 1014 10 16 0.00 0.00
1:53 pm 13:53 Sunny 79 26.1 44 6.7 29 29 NW 10 17 29.92 1013 10 16 0.00 0.00
2:53 pm 14:53 Sunny 80 26.7 44 6.7 28 28 NNW 10 17 29.89 1012 10 16 0.00 0.00
3:53 pm 15:53 Sunny 80 26.7 45 7.2 29 29 NNW 14 22 29.88 1012 10 16 0.00 0.00
4:53 pm 16:53 Sunny 80 26.7 46 7.8 30 30 NW 8 13 29.88 1012 10 16 0.00 0.00
5:53 pm 17:53 Sunny 79 26.1 45 7.2 30 30 WNW 8 13 29.88 1012 10 16 0.00 0.00
6:53 pm 18:53 Sunny 77 25 44 6.7 31 31 WNW 9 15 29.89 1012 10 16 0.00 0.00
7:53 pm 19:53 Clear 70 21.1 47 8.3 44 44 WNW 6 9 29.90 1013 10 16 0.00 0.00
8:53 pm 20:53 Clear 69 20.6 49 9.4 49 49 Calm 29.93 1014 10 16 0.00 0.00
9:53 pm 21:53 Clear 64 17.8 52 11.1 65 65 Calm 29.95 1014 10 16 0.00 0.00
10:53 pm 22:53 Clear 61 16.1 51 10.6 70 70 Calm 29.96 1015 10 16 0.00 0.00
11:53 pm 23:53 Clear 60 15.6 51 10.6 72 72 Calm 29.98 1015 10 16 0.00 0.00

Powered by AerisWeather